{"data":{"norad_id":55404,"intl_designator":"2023-014P","name":"STARLINK-5607","alt_names":[],"object_type":"PAYLOAD","status":"ACTIVE","operator":null,"country":"US","launch_date":"2023-01-31","launch_site_code":"AFWTR","launch_vehicle":null,"mission":null,"orbit_class":"UNKNOWN","rcs_meters":null,"size_class":null,"mass_kg":null,"dimensions":null,"purposes":["comms"],"wikipedia_slug":null,"has_3d_model":false,"image_url":null,"decayed_at":null,"tle_current":{"epoch":"2026-05-25T04:53:12.888096Z","epoch_age_seconds":51340,"freshness":"FRESH","line1":"1 55404U 23014P   26145.20362139 -.00000811  00000+0 -60217-4 0  9993","line2":"2 55404  69.9995 231.6478 0003195 270.0967  89.9826 14.98324419183512","mean_motion":14.98324419,"eccentricity":0.0003195,"inclination_deg":69.9995,"raan_deg":231.6478,"arg_perigee_deg":270.0967,"mean_anomaly_deg":89.9826,"bstar":-6.0217e-5,"rev_number":18351,"period_min":96.107357107687,"perigee_km":569.85255763725,"apogee_km":574.29374192296,"semimajor_km":6950.2101497801,"source":"CELESTRAK","updated_at":"2026-05-25T13:38:17.795537Z"}}}